Tracking 27079 objects as of 24-Mar-2023
HD Live streaming from Space Station
objects crossing your sky now

STARLINK-2526

Track STARLINK-2526 now!
10-day predictions
STARLINK-2526 is classified as:


NORAD ID: 48378
Int'l Code: 2021-038AB
Perigee: 553.0 km
Apogee: 555.3 km
Inclination: 53.1 °
Period: 95.6 minutes
Semi major axis: 6925 km
RCS: Unknown
Launch date: May 4, 2021
Source: United States (US)
Launch site: AIR FORCE EASTERN TEST RANGE (AFETR)
Your satellite tracking list
Your tracking list is empty




NASA's NSSDC Master Catalog

Two Line Element Set (TLE):
1 48378U 21038AB  23082.55141697  .00035687  00000-0  23984-2 0  9994
2 48378  53.0535 169.5265 0001616  90.1273 269.9901 15.06464519104061
Source of the keplerian elements: AFSPC